| time (UTC) | temp C | wind direction | speed KPH | gust KPH | rain 1hr cm | rain 24hr cm | rain mn cm | humidity % | barometer mb |
| 20260504044532 | 12 | 238 | 0.0 | 4.8 | 0.00 | 0.00 | 0.00 | 81 | 1005.2 |
| 20260504043044 | 12 | 238 | 0.0 | 6.4 | 0.00 | 0.00 | 0.00 | 80 | 1005.2 |
| 20260504041533 | 13 | 238 | 0.0 | 0.0 | 0.00 | 0.00 | 0.00 | 80 | 1005.0 |
| 20260504040028 | 13 | 238 | 0.0 | 4.8 | 0.00 | 0.00 | 0.00 | 79 | 1005.0 |
| 20260504034528 | 13 | 238 | 0.0 | 6.4 | 0.00 | 0.00 | 0.00 | 78 | 1005.0 |
| 20260504033025 | 13 | 238 | 0.0 | 11.3 | 0.00 | 0.00 | 0.00 | 77 | 1004.7 |
| 20260504031526 | 14 | 252 | 0.0 | 4.8 | 0.00 | 0.00 | 0.00 | 77 | 1004.6 |
| 20260504030022 | 14 | 255 | 0.0 | 6.4 | 0.00 | 0.00 | 0.00 | 77 | 1004.4 |
| 20260504024522 | 14 | 254 | 0.0 | 8.0 | 0.00 | 0.00 | 0.00 | 76 | 1004.1 |
| 20260504023021 | 14 | 252 | 0.0 | 8.0 | 0.00 | 0.00 | 0.00 | 75 | 1004.0 |
| 20260504021520 | 15 | 234 | 0.0 | 6.4 | 0.00 | 0.00 | 0.00 | 74 | 1003.9 |
| 20260504020030 | 15 | 261 | 1.6 | 11.3 | 0.00 | 0.00 | 0.00 | 72 | 1003.8 |
| 20260504014519 | 15 | 241 | 1.6 | 12.9 | 0.00 | 0.00 | 0.00 | 71 | 1003.7 |
| 20260504013022 | 16 | 260 | 1.6 | 9.7 | 0.00 | 0.00 | 0.00 | 70 | 1003.5 |
| 20260504011518 | 16 | 224 | 0.0 | 8.0 | 0.00 | 0.00 | 0.00 | 70 | 1003.5 |
| 20260504010017 | 17 | 240 | 0.0 | 8.0 | 0.00 | 0.00 | 0.00 | 68 | 1003.4 |
| 20260504004533 | 18 | 274 | 0.0 | 11.3 | 0.00 | 0.00 | 0.00 | 66 | 1003.2 |
| 20260504003017 | 18 | 196 | 0.0 | 4.8 | 0.00 | 0.00 | 0.00 | 65 | 1003.2 |
| 20260504001529 | 18 | 258 | 1.6 | 11.3 | 0.00 | 0.00 | 0.00 | 64 | 1003.2 |
| 20260504000014 | 18 | 169 | 0.0 | 8.0 | 0.00 | 0.00 | 0.00 | 63 | 1003.0 |
| 20260503234517 | 19 | 229 | 0.0 | 6.4 | 0.00 | 0.00 | 0.00 | 63 | 1002.9 |
| 20260503233013 | 20 | 246 | 0.0 | 12.9 | 0.00 | 0.00 | 0.00 | 62 | 1002.9 |
| 20260503231510 | 20 | 281 | 0.0 | 8.0 | 0.00 | 0.00 | 0.00 | 64 | 1003.0 |
| 20260503230009 | 19 | 151 | 0.0 | 8.0 | 0.00 | 0.00 | 0.00 | 63 | 1003.0 |
| 20260503224507 | 19 | 262 | 0.0 | 11.3 | 0.00 | 0.00 | 0.00 | 63 | 1003.1 |
| 20260503223007 | 19 | 262 | 0.0 | 11.3 | 0.00 | 0.00 | 0.00 | 64 | 1003.3 |
| 20260503221600 | 18 | 313 | 1.6 | 14.5 | 0.00 | 0.00 | 0.00 | 63 | 1003.5 |
| 20260503220057 | 19 | 98 | 0.0 | 8.0 | 0.00 | 0.00 | 0.00 | 64 | 1003.7 |
| 20260503214558 | 18 | 242 | 1.6 | 8.0 | 0.00 | 0.00 | 0.00 | 64 | 1003.7 |
| 20260503213051 | 18 | 240 | 0.0 | 17.7 | 0.00 | 0.00 | 0.00 | 66 | 1003.7 |
| 20260503211548 | 18 | 246 | 0.0 | 6.4 | 0.00 | 0.00 | 0.00 | 65 | 1003.7 |
| 20260503210045 | 18 | 63 | 0.0 | 8.0 | 0.00 | 0.00 | 0.00 | 66 | 1003.7 |
| 20260503204544 | 18 | 232 | 1.6 | 9.7 | 0.00 | 0.00 | 0.00 | 68 | 1003.8 |
| 20260503203037 | 17 | 267 | 1.6 | 11.3 | 0.00 | 0.00 | 0.00 | 69 | 1003.7 |
| 20260503201537 | 17 | 350 | 1.6 | 6.4 | 0.00 | 0.00 | 0.00 | 69 | 1004.0 |
| 20260503200030 | 16 | 233 | 1.6 | 8.0 | 0.00 | 0.00 | 0.00 | 71 | 1003.9 |
| 20260503194526 | 17 | 226 | 0.0 | 12.9 | 0.00 | 0.00 | 0.00 | 70 | 1003.9 |
| 20260503193022 | 16 | 248 | 3.2 | 8.0 | 0.00 | 0.00 | 0.00 | 71 | 1003.8 |
| 20260503191520 | 16 | 223 | 1.6 | 8.0 | 0.00 | 0.00 | 0.00 | 72 | 1003.9 |
| 20260503190026 | 16 | 233 | 1.6 | 9.7 | 0.00 | 0.00 | 0.00 | 72 | 1004.1 |
| 20260503184518 | 16 | 166 | 0.0 | 8.0 | 0.00 | 0.00 | 0.00 | 76 | 1004.2 |
| 20260503183013 | 16 | 271 | 0.0 | 4.8 | 0.00 | 0.00 | 0.00 | 78 | 1004.2 |
| 20260503181523 | 15 | 140 | 0.0 | 4.8 | 0.00 | 0.00 | 0.00 | 78 | 1004.2 |
| 20260503180016 | 15 | 165 | 0.0 | 8.0 | 0.00 | 0.00 | 0.00 | 80 | 1004.3 |
| 20260503174505 | 14 | 216 | 1.6 | 6.4 | 0.00 | 0.00 | 0.00 | 81 | 1004.1 |
| 20260503173003 | 13 | 171 | 0.0 | 3.2 | 0.00 | 0.00 | 0.00 | 83 | 1004.0 |
| 20260503171600 | 13 | 246 | 0.0 | 4.8 | 0.00 | 0.00 | 0.00 | 85 | 1003.8 |
| 20260503170110 | 12 | 229 | 0.0 | 4.8 | 0.00 | 0.00 | 0.00 | 85 | 1003.9 |
| 20260503110125 | 11 | 229 | 0.0 | 0.0 | 0.00 | 0.00 | 0.00 | 92 | 1001.2 |
| 20260503081510 | 12 | 229 | 0.0 | 0.0 | 0.00 | 0.00 | 0.00 | 90 | 1001.9 |
| 20260503071605 | 12 | 229 | 0.0 | 0.0 | 0.00 | 0.00 | 0.00 | 89 | 1002.2 |